N4YHC Weather Reports


time (UTC)temp
C
wind
direction
speed
KPH
gust
KPH
rain 1hr
cm
rain 24hr
cm
rain mn
cm
humidity
%
barometer
mb
20260509011955 17 176 0.0 6.4 0.00 0.00 0.00 51 1008.7
20260509011412 17 234 1.6 4.8 0.00 0.00 0.00 50 1008.8
20260509010946 18 212 3.2 3.2 0.00 0.00 0.00 50 1008.7
20260509010419 18 209 1.6 3.2 0.00 0.00 0.00 49 1008.7
20260509005950 18 223 1.6 3.2 0.00 0.00 0.00 49 1008.9
20260509005423 18 222 1.6 4.8 0.00 0.00 0.00 50 1008.8
20260509004432 18 212 1.6 6.4 0.00 0.00 0.00 49 1008.7
20260509004006 18 203 3.2 6.4 0.00 0.00 0.00 49 1008.6
20260509003423 18 188 1.6 4.8 0.00 0.00 0.00 50 1008.7
20260509002433 18 218 0.0 4.8 0.00 0.00 0.00 51 1008.6
20260509002006 18 232 0.0 4.8 0.00 0.00 0.00 50 1008.5
20260509001439 18 187 1.6 6.4 0.00 0.00 0.00 49 1008.6
20260509000449 18 216 3.2 6.4 0.00 0.00 0.00 50 1008.6
20260508235421 18 226 1.6 9.7 0.00 0.00 0.00 49 1008.8
20260508234954 18 206 3.2 9.7 0.00 0.00 0.00 49 1008.7
20260508234427 18 215 1.6 4.8 0.00 0.00 0.00 48 1008.8
20260508233440 18 223 1.6 6.4 0.00 0.00 0.00 49 1008.6
20260508232912 18 207 1.6 6.4 0.00 0.00 0.00 47 1008.6
20260508232002 19 188 1.6 8.0 0.00 0.00 0.00 48 1008.8
20260508230955 19 219 3.2 11.3 0.00 0.00 0.00 48 1008.7
20260508230428 19 206 4.8 11.3 0.00 0.00 0.00 47 1008.7
20260508225414 19 226 3.2 6.4 0.00 0.00 0.00 48 1008.5
20260508224947 19 278 0.0 3.2 0.00 0.00 0.00 49 1008.6
20260508224420 19 239 0.0 11.3 0.00 0.00 0.00 48 1008.6
20260508223953 19 213 4.8 12.9 0.00 0.00 0.00 47 1008.6
20260508223410 19 180 9.7 12.9 0.00 0.00 0.00 48 1008.5
20260508222459 20 206 3.2 6.4 0.00 0.00 0.00 50 1008.4
20260508221448 20 218 3.2 8.0 0.00 0.00 0.00 48 1008.4
20260508220921 20 245 1.6 8.0 0.00 0.00 0.00 48 1008.4
20260508220456 20 237 4.8 11.3 0.00 0.00 0.00 47 1008.3
20260508214944 20 246 6.4 16.1 0.00 0.00 0.00 45 1008.5
20260508214416 20 223 4.8 14.5 0.00 0.00 0.00 45 1008.5
20260508212942 21 227 4.8 19.3 0.00 0.00 0.00 43 1008.5
20260508211931 21 241 11.3 17.7 0.00 0.00 0.00 42 1008.6
20260508210927 21 255 4.8 12.9 0.00 0.00 0.00 46 1008.6
20260508205936 21 211 8.0 12.9 0.00 0.00 0.00 46 1008.9
20260508205409 21 280 1.6 14.5 0.00 0.00 0.00 47 1009.0
20260508204459 21 213 3.2 16.1 0.00 0.00 0.00 43 1009.1
20260508203931 21 257 8.0 16.1 0.00 0.00 0.00 45 1009.2
20260508202927 21 239 8.0 16.1 0.00 0.00 0.00 42 1009.4
20260508202502 21 231 6.4 17.7 0.00 0.00 0.00 42 1009.3
20260508201935 21 235 11.3 17.7 0.00 0.00 0.00 43 1009.4
20260508200945 20 202 12.9 17.7 0.00 0.00 0.00 42 1009.8
20260508200458 20 241 8.0 16.1 0.00 0.00 0.00 42 1009.8
20260508194908 20 231 4.8 19.3 0.00 0.00 0.00 43 1009.9
20260508194441 20 212 8.0 19.3 0.00 0.00 0.00 42 1010.0
20260508193913 21 214 9.7 19.3 0.00 0.00 0.00 39 1009.9
20260508193447 21 197 6.4 19.3 0.00 0.00 0.00 43 1009.9
20260508192436 20 203 8.0 16.1 0.00 0.00 0.00 40 1010.0
20260508191432 20 230 9.7 20.9 0.00 0.00 0.00 44 1010.3
20260508191006 20 230 19.3 20.9 0.00 0.00 0.00 42 1010.2
20260508190439 20 226 12.9 19.3 0.00 0.00 0.00 41 1010.3
20260508185909 20 232 9.7 22.5 0.00 0.00 0.00 42 1010.4
20260508185443 20 228 11.3 22.5 0.00 0.00 0.00 41 1010.5
20260508184916 20 280 14.5 19.3 0.00 0.00 0.00 42 1010.5
20260508183910 20 232 17.7 24.1 0.00 0.00 0.00 43 1010.7
20260508183444 20 285 12.9 17.7 0.00 0.00 0.00 45 1010.9
20260508182917 20 228 8.0 16.1 0.00 0.00 0.00 42 1010.8
20260508182451 20 241 6.4 17.7 0.00 0.00 0.00 45 1011.1
20260508181924 20 233 9.7 17.7 0.00 0.00 0.00 45 1011.1
20260508181457 20 208 4.8 20.9 0.00 0.00 0.00 46 1011.1
20260508175907 20 234 12.9 17.7 0.00 0.00 0.00 43 1011.3
20260508175441 20 224 3.2 17.7 0.00 0.00 0.00 53 1011.2
20260508174914 20 251 6.4 17.7 0.00 0.00 0.00 44 1011.2
20260508174448 20 241 11.3 17.7 0.00 0.00 0.00 44 1011.4
20260508173921 20 223 11.3 16.1 0.00 0.00 0.00 50 1011.6
20260508173454 20 215 11.3 24.1 0.00 0.00 0.00 45 1011.6
20260508171926 19 237 11.3 24.1 0.00 0.00 0.00 44 1012.1
20260508171500 19 220 14.5 19.3 0.00 0.00 0.00 45 1012.2
20260508170932 19 251 9.7 19.3 0.00 0.00 0.00 46 1012.3
20260508170506 19 224 4.8 24.1 0.00 0.00 0.00 47 1012.3
20260508165916 18 258 12.9 24.1 0.00 0.00 0.00 46 1012.3
20260508165006 18 243 14.5 16.1 0.00 0.00 0.00 48 1012.6
20260508164439 18 249 12.9 17.7 0.00 0.00 0.00 47 1012.9
20260508163436 18 288 3.2 16.1 0.00 0.00 0.00 51 1013.0
20260508162001 18 203 6.4 17.7 0.00 0.00 0.00 50 1013.1
20260508161434 18 166 12.9 17.7 0.00 0.00 0.00 48 1013.2
20260508160907 18 221 9.7 24.1 0.00 0.00 0.00 49 1013.2
20260508160441 18 242 11.3 24.1 0.00 0.00 0.00 47 1013.2
20260508155937 18 245 9.7 16.1 0.00 0.00 0.00 52 1013.3
20260508154947 18 264 6.4 19.3 0.00 0.00 0.00 51 1013.4
20260508154419 17 231 11.3 19.3 0.00 0.00 0.00 52 1013.5
20260508153408 17 228 8.0 17.7 0.00 0.00 0.00 52 1013.8
20260508151952 17 199 14.5 19.3 0.00 0.00 0.00 52 1013.9
20260508151408 17 235 11.3 19.3 0.00 0.00 0.00 55 1014.0
20260508150943 16 212 9.7 19.3 0.00 0.00 0.00 52 1014.1
20260508150416 16 232 8.0 20.9 0.00 0.00 0.00 53 1014.2
20260508145947 16 234 12.9 20.9 0.00 0.00 0.00 53 1014.1
20260508144957 16 245 11.3 17.7 0.00 0.00 0.00 54 1014.0
20260508144430 16 230 6.4 17.7 0.00 0.00 0.00 55 1014.0
20260508144004 15 243 8.0 17.7 0.00 0.00 0.00 57 1014.2
20260508142413 15 178 8.0 12.9 0.00 0.00 0.00 59 1014.2
20260508142006 14 230 1.6 12.9 0.00 0.00 0.00 61 1014.2
20260508141438 14 204 4.8 14.5 0.00 0.00 0.00 61 1014.3
20260508140448 13 246 9.7 17.7 0.00 0.00 0.00 62 1014.3
20260508134939 12 243 8.0 9.7 0.00 0.00 0.00 66 1014.5
20260508133949 11 244 6.4 12.9 0.00 0.00 0.00 67 1014.4
20260508132938 11 246 4.8 11.3 0.00 0.00 0.00 69 1014.5
20260508132411 11 189 4.8 11.3 0.00 0.00 0.00 69 1014.5
20260508131501 10 193 6.4 11.3 0.00 0.00 0.00 69 1014.5
20260508130918 10 183 4.8 9.7 0.00 0.00 0.00 70 1014.5
20260508130452 10 216 4.8 12.9 0.00 0.00 0.00 71 1014.4
20260508125921 10 201 8.0 12.9 0.00 0.00 0.00 70 1014.3
20260508125456 10 236 6.4 9.7 0.00 0.00 0.00 71 1014.5
20260508124929 9 243 6.4 11.3 0.00 0.00 0.00 72 1014.4
20260508123958 9 226 4.8 11.3 0.00 0.00 0.00 73 1014.3
20260508123414 8 213 6.4 8.0 0.00 0.00 0.00 73 1014.4
20260508122948 8 193 4.8 6.4 0.00 0.00 0.00 74 1014.3
20260508121937 8 218 4.8 6.4 0.00 0.00 0.00 77 1014.2
20260508121410 7 241 0.0 4.8 0.00 0.00 0.00 78 1014.1
20260508120419 7 257 1.6 8.0 0.00 0.00 0.00 79 1014.2
20260508115930 7 228 4.8 8.0 0.00 0.00 0.00 80 1014.3
20260508115504 7 243 0.0 3.2 0.00 0.00 0.00 81 1014.2
20260508114455 6 243 0.0 0.0 0.00 0.00 0.00 82 1014.0
20260508113928 6 243 0.0 3.2 0.00 0.00 0.00 83 1014.1
20260508112432 5 243 0.0 0.0 0.00 0.00 0.00 84 1014.0
20260508112006 5 243 0.0 0.0 0.00 0.00 0.00 84 1014.0
20260508111439 5 243 0.0 0.0 0.00 0.00 0.00 84 1013.9
20260508105001 5 243 0.0 0.0 0.00 0.00 0.00 84 1013.8
20260508104434 5 243 0.0 0.0 0.00 0.00 0.00 84 1013.7
20260508103907 5 243 0.0 0.0 0.00 0.00 0.00 84 1013.7
20260508103441 5 243 0.0 0.0 0.00 0.00 0.00 85 1013.7
20260508102438 5 243 0.0 0.0 0.00 0.00 0.00 85 1013.8
20260508101911 5 243 0.0 0.0 0.00 0.00 0.00 85 1013.7
20260508101444 5 243 0.0 0.0 0.00 0.00 0.00 85 1013.6
20260508100918 5 243 0.0 0.0 0.00 0.00 0.00 85 1013.7
20260508100450 5 243 0.0 0.0 0.00 0.00 0.00 86 1013.7
20260508093934 5 243 0.0 0.0 0.00 0.00 0.00 86 1013.5
20260508093407 5 243 0.0 0.0 0.00 0.00 0.00 86 1013.5
20260508092456 5 243 0.0 0.0 0.00 0.00 0.00 86 1013.5
20260508091928 5 243 0.0 0.0 0.00 0.00 0.00 86 1013.5
20260508091502 5 243 0.0 0.0 0.00 0.00 0.00 86 1013.4
20260508090935 5 243 0.0 0.0 0.00 0.00 0.00 86 1013.4
20260508085908 5 243 0.0 0.0 0.00 0.00 0.00 85 1013.5
20260508085442 5 243 0.0 0.0 0.00 0.00 0.00 85 1013.4
20260508084431 5 243 0.0 0.0 0.00 0.00 0.00 86 1013.3
20260508082431 5 243 0.0 0.0 0.00 0.00 0.00 85 1013.3
20260508082005 5 243 0.0 0.0 0.00 0.00 0.00 84 1013.3
20260508080958 5 243 0.0 0.0 0.00 0.00 0.00 84 1013.3
20260508080432 5 243 0.0 0.0 0.00 0.00 0.00 84 1013.4
20260508080003 5 243 0.0 0.0 0.00 0.00 0.00 83 1013.3
20260508074952 5 243 0.0 0.0 0.00 0.00 0.00 82 1013.3
20260508073941 6 243 0.0 0.0 0.00 0.00 0.00 82 1013.4
20260508072938 5 243 0.0 0.0 0.00 0.00 0.00 83 1013.1
20260508072411 5 243 0.0 0.0 0.00 0.00 0.00 83 1013.2
20260508071945 5 243 0.0 0.0 0.00 0.00 0.00 84 1013.2
20260508064942 6 243 0.0 0.0 0.00 0.00 0.00 83 1013.8
20260508064414 6 243 0.0 0.0 0.00 0.00 0.00 83 1014.0
20260508063424 6 243 0.0 0.0 0.00 0.00 0.00 83 1013.9
20260508062958 6 243 0.0 0.0 0.00 0.00 0.00 82 1014.0
20260508061431 6 243 0.0 0.0 0.00 0.00 0.00 82 1014.2
20260508061004 6 243 0.0 0.0 0.00 0.00 0.00 82 1014.2
20260508060437 6 243 0.0 0.0 0.00 0.00 0.00 81 1014.1
20260508055925 6 243 0.0 0.0 0.00 0.00 0.00 81 1014.1
20260508055412 6 243 0.0 0.0 0.00 0.00 0.00 81 1014.1
20260508054920 6 243 0.0 0.0 0.00 0.00 0.00 81 1014.2
20260508054408 6 243 0.0 0.0 0.00 0.00 0.00 81 1014.2
20260508053916 6 243 0.0 0.0 0.00 0.00 0.00 81 1014.2
20260508053408 6 243 0.0 0.0 0.00 0.00 0.00 81 1014.1
20260508052916 6 243 0.0 0.0 0.00 0.00 0.00 80 1014.1
20260508052424 6 243 0.0 0.0 0.00 0.00 0.00 80 1014.1
20260508051912 6 243 0.0 0.0 0.00 0.00 0.00 79 1014.1
20260508051420 6 243 0.0 0.0 0.00 0.00 0.00 78 1014.1
20260508050908 6 243 0.0 0.0 0.00 0.00 0.00 78 1014.0
20260508045922 7 243 0.0 0.0 0.00 0.00 0.00 77 1014.1
20260508045409 7 243 0.0 0.0 0.00 0.00 0.00 76 1014.1
20260508044407 7 243 0.0 0.0 0.00 0.00 0.00 75 1014.2
20260508043919 7 243 0.0 0.0 0.00 0.00 0.00 74 1014.2
20260508043407 7 243 0.0 0.0 0.00 0.00 0.00 73 1014.2
20260508042915 7 243 0.0 0.0 0.00 0.00 0.00 73 1014.3
20260508041912 7 243 0.0 0.0 0.00 0.00 0.00 72 1014.0
20260508040912 7 243 0.0 0.0 0.00 0.00 0.00 73 1013.8
20260508040420 7 243 0.0 0.0 0.00 0.00 0.00 73 1013.9
20260508035441 7 243 0.0 0.0 0.00 0.00 0.00 73 1014.0
20260508034411 7 243 0.0 0.0 0.00 0.00 0.00 74 1013.9
20260508033944 7 243 0.0 0.0 0.00 0.00 0.00 74 1014.0
20260508033414 7 243 0.0 0.0 0.00 0.00 0.00 73 1014.0
20260508032946 7 243 0.0 0.0 0.00 0.00 0.00 74 1014.0
20260508032459 7 243 0.0 0.0 0.00 0.00 0.00 75 1014.0
20260508031930 7 243 0.0 0.0 0.00 0.00 0.00 78 1013.9
20260508030925 7 243 0.0 0.0 0.00 0.00 0.00 76 1013.9
20260508030500 7 243 0.0 0.0 0.00 0.00 0.00 76 1013.9
20260508025930 7 243 0.0 0.0 0.00 0.00 0.00 77 1014.0
20260508024959 8 243 0.0 0.0 0.00 0.00 0.00 75 1013.8
20260508023947 8 243 0.0 0.0 0.00 0.00 0.00 75 1013.9
20260508023438 8 243 0.0 0.0 0.00 0.00 0.00 76 1013.8
20260508022435 8 243 0.0 0.0 0.00 0.00 0.00 76 1013.6
20260508021423 8 243 0.0 0.0 0.00 0.00 0.00 75 1013.7
20260508020957 8 243 0.0 0.0 0.00 0.00 0.00 74 1013.7
20260508015945 8 243 0.0 0.0 0.00 0.00 0.00 73 1013.7
20260508015500 8 243 0.0 0.0 0.00 0.00 0.00 73 1013.8
20260508014933 8 243 0.0 0.0 0.00 0.00 0.00 71 1013.6
20260508013928 9 243 0.0 0.0 0.00 0.00 0.00 71 1013.5